AS428 Weather Reports


Display with metric or nautical units.
time (UTC)temp
F
wind
direction
speed
MPH
gust
MPH
rain 1hr
in
rain 24hr
in
rain mn
in
humidity
%
barometer
mb
20260509185048 70 266 3.0 8.0 0.00 0.26 0.19 58 1010.9
20260509184146 70 255 3.0 6.0 0.00 0.26 0.19 59 1011.0
20260509183147 70 233 2.0 6.0 0.00 0.26 0.19 62 1011.0
20260509182147 70 263 4.0 7.0 0.00 0.26 0.19 62 1010.9
20260509180147 70 239 3.0 5.0 0.00 0.26 0.19 62 1011.2
20260509175148 69 210 2.0 5.0 0.00 0.26 0.19 63 1011.4
20260509174149 68 271 3.0 5.0 0.00 0.26 0.19 64 1011.4
20260509173247 68 287 3.0 8.0 0.00 0.26 0.19 64 1011.6
20260509172248 68 256 5.0 6.0 0.00 0.26 0.19 64 1011.4
20260509171247 68 250 5.0 9.0 0.00 0.26 0.19 64 1011.6
20260509170346 68 270 4.0 5.0 0.00 0.26 0.19 66 1011.6
20260509165348 68 277 3.0 6.0 0.00 0.26 0.19 66 1011.6
20260509164348 67 225 0.0 2.0 0.00 0.26 0.19 67 1011.6
20260509162446 67 244 6.0 8.0 0.00 0.26 0.19 67 1011.5
20260509161449 66 291 1.0 3.0 0.00 0.26 0.19 68 1011.5
20260509155647 66 273 5.0 8.0 0.00 0.26 0.19 68 1011.3
20260509154648 66 270 3.0 4.0 0.00 0.26 0.19 70 1011.2
20260509153647 65 242 4.0 5.0 0.00 0.26 0.19 70 1011.4
20260509151648 66 261 4.0 6.0 0.00 0.26 0.19 72 1011.2
20260509145648 65 222 3.0 4.0 0.00 0.26 0.19 75 1011.1
20260509145550 65 227 2.0 6.0 0.00 0.26 0.19 75 1011.0
20260509144646 65 257 3.0 4.0 0.00 0.26 0.19 79 1011.1
20260509143648 65 210 2.0 3.0 0.00 0.26 0.19 81 1011.3
20260509142648 65 218 2.0 3.0 0.00 0.26 0.19 84 1011.2
20260509141647 65 190 0.0 1.0 0.00 0.26 0.19 89 1011.0
20260509140647 63 232 0.0 4.0 0.00 0.26 0.19 89 1011.2
20260509135746 62 247 1.0 2.0 0.00 0.26 0.19 91 1011.0
20260509134745 61 193 2.0 3.0 0.00 0.26 0.19 94 1011.0
20260509133749 60 184 4.0 6.0 0.00 0.26 0.19 96 1010.9
20260509132847 59 190 4.0 6.0 0.00 0.26 0.19 98 1010.9
20260509131847 58 188 2.0 4.0 0.00 0.26 0.19 98 1010.8
20260509130946 57 213 1.0 2.0 0.00 0.26 0.19 99 1010.9
20260509125948 57 175 2.0 4.0 0.00 0.26 0.19 99 1010.9
20260509124948 56 172 2.0 4.0 0.00 0.26 0.19 98 1010.9
20260509123949 56 180 2.0 3.0 0.00 0.26 0.19 98 1010.9
20260509122949 56 175 2.0 4.0 0.00 0.26 0.19 99 1010.9
20260509122047 55 180 0.0 1.0 0.00 0.26 0.19 99 1010.9
20260509121049 55 202 2.0 3.0 0.00 0.26 0.19 99 1010.7
20260509120047 55 202 0.0 1.0 0.00 0.26 0.19 99 1010.5
20260509115046 55 202 0.0 0.0 0.00 0.26 0.19 99 1010.4
20260509114945 55 202 0.0 0.0 0.00 0.26 0.19 99 1010.4
20260509113948 54 199 2.0 3.0 0.00 0.26 0.19 99 1010.1
20260509112948 54 202 0.0 1.0 0.00 0.26 0.19 98 1010.1
20260509110948 54 157 0.0 0.0 0.00 0.26 0.19 99 1009.9
20260509105949 54 157 0.0 0.0 0.00 0.26 0.19 99 1009.7
20260509104946 54 157 0.0 0.0 0.00 0.26 0.19 99 1009.5
20260509103949 54 150 1.0 2.0 0.00 0.26 0.19 99 1009.5
20260509100047 54 181 3.0 5.0 0.00 0.26 0.19 98 1009.7
20260509095049 54 182 2.0 4.0 0.00 0.26 0.19 97 1009.9
20260509094947 54 195 2.0 4.0 0.00 0.26 0.19 97 1009.9
20260509093947 54 157 1.0 4.0 0.01 0.26 0.19 98 1009.9
20260509092947 54 180 1.0 3.0 0.03 0.26 0.19 97 1010.1
20260509091947 54 45 0.0 0.0 0.03 0.26 0.19 98 1009.8
20260509090947 54 5 2.0 3.0 0.05 0.26 0.19 98 1009.8
20260509085949 55 86 1.0 3.0 0.06 0.26 0.19 98 1010.0
20260509085845 55 80 3.0 4.0 0.06 0.26 0.19 97 1010.1
20260509084845 55 133 2.0 4.0 0.08 0.26 0.18 98 1010.4
20260509083905 55 123 0.0 2.0 0.07 0.25 0.17 96 1010.8
20260509083748 55 135 2.0 3.0 0.07 0.24 0.17 97 1010.8
20260509082746 55 95 0.0 0.0 0.07 0.23 0.16 96 1010.8
20260509080848 55 157 0.0 0.0 0.07 0.21 0.13 97 1010.9
20260509075849 55 157 0.0 1.0 0.06 0.20 0.13 97 1010.9
20260509074848 55 90 0.0 1.0 0.06 0.18 0.11 97 1010.7
20260509072949 55 90 0.0 0.0 0.06 0.16 0.09 97 1010.9
20260509071948 55 90 0.0 1.0 0.06 0.15 0.08 97 1010.9
20260509065946 55 90 0.0 0.0 0.06 0.14 0.07 97 1011.0
20260509065045 55 90 0.0 0.0 0.04 0.12 0.05 97 1011.6
20260509064046 55 90 0.0 0.0 0.03 0.11 0.04 96 1011.6
20260509063947 55 90 0.0 0.0 0.03 0.11 0.04 96 1011.6
20260509062947 55 337 0.0 0.0 0.02 0.10 0.03 96 1011.6
20260509061948 55 337 0.0 0.0 0.01 0.09 0.02 95 1011.7
20260509060949 55 112 0.0 0.0 0.00 0.08 0.01 96 1011.6
20260509055946 55 90 0.0 0.0 0.00 0.08 0.01 96 1011.5
20260509054949 55 90 0.0 0.0 0.00 0.08 0.01 95 1011.6
20260509054045 55 90 0.0 0.0 0.00 0.08 0.01 96 1011.6
20260509053046 55 90 0.0 0.0 0.01 0.08 0.01 96 1011.7
20260509052047 55 90 0.0 0.0 0.01 0.08 0.01 95 1011.6
20260509051048 55 37 1.0 2.0 0.01 0.08 0.01 95 1011.8
20260509050048 55 357 3.0 4.0 0.01 0.08 0.01 96 1011.8
20260509045145 55 31 2.0 4.0 0.01 0.08 0.01 95 1011.7
20260509043149 55 62 1.0 3.0 0.00 0.07 0.00 96 1011.7
20260509042245 56 35 1.0 2.0 0.00 0.07 0.00 95 1011.6
20260509041246 56 29 2.0 3.0 0.00 0.07 0.00 95 1011.6
20260509040247 56 22 3.0 3.0 0.00 0.07 0.00 95 1011.7
20260509034329 56 22 2.0 3.0 0.00 0.07 0.07 95 1011.8
20260509033330 56 17 2.0 3.0 0.01 0.07 0.07 94 1011.6
20260509031332 56 24 3.0 5.0 0.02 0.07 0.07 93 1011.7
20260509030329 56 53 1.0 4.0 0.02 0.07 0.07 94 1011.7
20260509024330 57 28 1.0 3.0 0.03 0.07 0.07 92 1011.6
20260509023329 57 348 3.0 4.0 0.03 0.06 0.06 91 1012.0
20260509021428 57 135 0.0 0.0 0.03 0.05 0.05 89 1011.8
20260509020429 57 135 0.0 0.0 0.04 0.05 0.05 90 1011.8
20260509015429 57 135 0.0 1.0 0.04 0.04 0.04 89 1011.6
20260509014528 57 29 0.0 2.0 0.04 0.04 0.04 88 1011.8
20260509013530 57 45 0.0 0.0 0.03 0.03 0.03 88 1011.6
20260509012530 57 34 1.0 4.0 0.03 0.03 0.03 88 1011.7
20260509011530 58 352 4.0 6.0 0.02 0.02 0.02 84 1011.8
20260509010628 59 349 6.0 10.0 0.01 0.01 0.01 78 1011.9
20260509005631 62 4 10.0 14.0 0.01 0.01 0.01 64 1011.9
20260509004631 66 350 6.0 11.0 0.00 0.00 0.00 51 1011.8
20260509003729 66 269 3.0 4.0 0.00 0.00 0.00 50 1011.0
20260509003628 66 204 0.0 1.0 0.00 0.00 0.00 50 1011.0
20260509002631 66 199 2.0 4.0 0.00 0.00 0.00 50 1010.9
20260509001630 66 225 0.0 1.0 0.00 0.00 0.00 51 1010.9
20260509000631 67 212 1.0 2.0 0.00 0.00 0.00 51 1010.9
20260508235729 67 202 1.0 2.0 0.00 0.00 0.00 51 1011.0
20260508234729 67 225 1.0 2.0 0.00 0.00 0.00 50 1010.9
20260508233729 67 225 0.0 1.0 0.00 0.00 0.00 49 1011.0
20260508232730 68 251 2.0 2.0 0.00 0.00 0.00 48 1011.0
20260508231729 68 254 2.0 4.0 0.00 0.00 0.00 48 1011.2
20260508230828 68 249 4.0 6.0 0.00 0.00 0.00 47 1011.1
20260508225830 68 226 3.0 5.0 0.00 0.00 0.00 48 1011.2
20260508224830 68 223 2.0 3.0 0.00 0.00 0.00 47 1011.5
20260508221929 69 243 4.0 8.0 0.00 0.00 0.00 45 1011.3
20260508220931 69 252 5.0 9.0 0.00 0.00 0.00 45 1011.2
20260508220028 68 230 3.0 5.0 0.00 0.00 0.00 47 1011.3
20260508215030 68 240 4.0 8.0 0.00 0.00 0.00 46 1011.4
20260508213029 68 239 4.0 9.0 0.00 0.00 0.00 46 1011.5
20260508212128 68 254 5.0 7.0 0.00 0.00 0.00 45 1011.5
20260508211131 69 264 3.0 5.0 0.00 0.00 0.00 45 1011.2
20260508205130 68 240 5.0 8.0 0.00 0.00 0.00 46 1011.5
20260508204129 68 254 2.0 4.0 0.00 0.00 0.00 45 1011.5
20260508203131 69 225 3.0 4.0 0.00 0.00 0.00 44 1011.8
20260508202229 69 262 3.0 5.0 0.00 0.00 0.00 44 1011.9
20260508201230 70 247 6.0 10.0 0.00 0.00 0.00 43 1011.9
20260508200230 70 231 3.0 5.0 0.00 0.00 0.00 44 1012.2
20260508195329 70 236 6.0 11.0 0.00 0.00 0.00 43 1012.2
20260508194329 70 247 3.0 4.0 0.00 0.00 0.00 43 1012.3
20260508193329 70 263 5.0 11.0 0.00 0.00 0.00 45 1012.5
20260508192331 70 220 5.0 8.0 0.00 0.00 0.00 45 1012.7
20260508191429 70 214 6.0 9.0 0.00 0.00 0.00 45 1012.8
20260508190528 69 251 5.0 8.0 0.00 0.00 0.00 45 1013.2
20260508185529 69 226 2.0 4.0 0.00 0.00 0.00 45 1013.3